Location: *
(38.3914°N, 75.0697°W)
Time: 15:13:45
(UTC+00:00)

HJ-1C - Pass Details

Date: 17 February 2020
Orbit: 435 x 445 km, 97.2° (Epoch: 08 April)

Event Time Altitude Azimuth Distance (km) Brightness Sun altitude
Exits shadow 00:05:39 - 165° (SSE) 2,115 6.7 -17.6°
Reaches altitude 10° 00:06:59 10° 165° (SSE) 1,543 6.0 -17.8°
Maximum altitude 00:10:17 81° 79° (ENE) 447 3.2 -18.5°
Drops below altitude 10° 00:13:36 10° 351° (N) 1,551 6.2 -19.1°
Sets 00:15:37 0° 350° (N) 2,423 7.2 -19.5°
